Regional Weather Roundup
Issued by NWS Little Rock, AR

Current Version | Previous Version | Text Only | Print | Product List | Glossary On
Versions: 1 2 3 4 5 6 7 8 9 10 11 12 13 14 15 16 17 18 19 20 21 22 23 24 25 26 27
000
ASUS44 KLZK 240105
RWRLZK

WEATHER ROUNDUP FOR ARKANSAS
NATIONAL WEATHER SERVICE LITTLE ROCK AR
800 PM CDT SAT JUL 23 2016

NOTE: "FAIR" INDICATES FEW OR NO CLOUDS BELOW 12,000 FEET WITH NO
SIGNIFICANT WEATHER AND/OR OBSTRUCTIONS TO VISIBILITY.

ARZ001-003-010-029-240200-
NORTHWEST ARKANSAS

CITY           SKY/WX    TMP DP  RH WIND       PRES   REMARKS
FAYETTEVILLE   CLOUDY    87  77  72 S6        29.94R HX  99
FORT SMITH     CLOUDY    90  71  53 S5        29.89R HX  96
HARRISON       PTCLDY    86  74  67 SW5       29.96R HX  94
BENTONVILLE    CLEAR     90  72  55 SE6       29.96R HX  96
ROGERS         CLEAR     89  78  70 SE6       29.95R HX 103
SILOAM SPGS    CLEAR    N/A N/A N/A CALM      29.95R
HIGHFILL       CLEAR     92  76  59 SE7       29.93R HX 104
SPRINGDALE     PTCLDY    90  75  62 SE5       29.96R HX 100
$$

ARZ004-005-016-240200-
NORTH CENTRAL ARKANSAS

CITY           SKY/WX    TMP DP  RH WIND       PRES   REMARKS
BATESVILLE     CLOUDY    82  72  69 E5        29.93F HX  87
FLIPPIN        PTCLDY    88  70  55 SE8       29.91R HX  92
MTN HOME       CLOUDY    86  73  65 S8        29.92R HX  93
$$

ARZ040-041-240200-
WEST CENTRAL ARKANSAS

CITY           SKY/WX    TMP DP  RH WIND       PRES   REMARKS
MENA           MOCLDY    82  77  83 CALM      29.98R HX  91
MOUNT IDA      CLOUDY    81  79  94 CALM      29.94R HX  90
$$

ARZ009-017-025-026-028-240200-
NORTHEAST ARKANSAS

CITY           SKY/WX    TMP DP  RH WIND       PRES   REMARKS
CORNING          N/A     86  82  89 SW7       29.93R HX 105
JONESBORO      CLOUDY    83  71  67 W6        29.93R HX  87
NEWPORT        CLOUDY    83  72  69 W6        29.94R HX  88
WALNUT RIDGE   MOCLDY    84  70  61 S8        29.92R HX  88
BLYTHEVILLE    CLOUDY    85  79  82 SW8       29.93R HX  98
$$

ARZ022-023-033-042-044-240200-
CENTRAL ARKANSAS

CITY           SKY/WX    TMP DP  RH WIND       PRES   REMARKS
LITTLE ROCK    CLOUDY    78  70  76 S5        29.92S
N LITTLE ROCK    N/A     78  71  79 S5        29.89S
JACKSONVILLE   CLOUDY    77  74  91 S1        29.91F
SEARCY         CLOUDY    77  71  82 W3        29.95R
HOT SPRINGS    CLOUDY    77  73  87 CALM      29.96R
RUSSELLVILLE   CLOUDY    86  74  67 E5        29.92R HX  94
$$

ARZ036-240200-
EAST ARKANSAS

CITY           SKY/WX    TMP DP  RH WIND       PRES   REMARKS
WEST MEMPHIS   CLOUDY    82  75  79 S3        29.93R HX  89
$$

ARZ050-053-066-070-073-240200-
SOUTHWEST ARKANSAS

CITY           SKY/WX    TMP DP  RH WIND       PRES   REMARKS
CAMDEN         CLOUDY    79  68  69 N10G20    29.96R
TEXARKANA      LGT RAIN  78  75  90 SW3       29.95R
EL DORADO      CLOUDY    79  74  84 NE7       29.97R
DE QUEEN       CLOUDY    81  73  76 CALM      29.93R THUNDER HX  86
$$

ARZ056-057-069-240200-
SOUTHEAST ARKANSAS

CITY           SKY/WX    TMP DP  RH WIND       PRES   REMARKS
PINE BLUFF     CLOUDY    74  71  91 SW6       29.94F
STUTTGART      CLOUDY    79  66  65 SW5       29.93F
MONTICELLO     CLOUDY    78  72  81 W5        29.94R

$$






USA.gov is the U.S. government's official web portal to all federal, state and local government web resources and services.